Skip Page Navigation
NASA JPL Caltech
NASA Logo - Jet Propulsion Laboratory + View the NASA Portal
+ Near-Earth Object (NEO) Program
Search JPL
JPL Home Earth Solar System Stars & Galaxies Technology
JPL Solar System Dynamics
BODIES ORBITS EPHEMERIDES TOOLS PHYSICAL DATA DISCOVERY FAQ SITE MAP
JPL Small-Body Database Browser
Search: [ help ]  
163132 (2002 CU11)
Classification: Apollo [NEO, PHA]          SPK-ID: 2163132
Ephemeris | Orbit Diagram | Orbital Elements | Physical Parameters | Discovery Circumstances | Close-Approach Data ]

[ show orbit diagram ]
Orbital Elements at Epoch 2457400.5 (2016-Jan-13.0) TDB
Reference: JPL 113 (heliocentric ecliptic J2000)
 Element Value Uncertainty (1-sigma)   Units 
e .2951698217629672 3.3233e-08  
a 1.219568748563599 3.0055e-09 au
q .8595888584223965 3.889e-08 au
i 48.78186086766273 2.4868e-06 deg
node 157.7652842730728 4.3273e-07 deg
peri 110.5379483231654 7.8462e-06 deg
M 47.60938922877444 4.6928e-06 deg
tp 2457335.442410672809
(2015-Nov-08.94241067)
6.3699e-06 JED
period 491.9351526491229
1.35
1.8185e-06
4.979e-09
d
yr
n .7318037714145084 2.7052e-09 deg/d
Q 1.579548638704802 3.8927e-09 au
  Orbit Determination Parameters
   # obs. used (total)      480  
   # delay obs. used      6  
   # Doppler obs. used      8  
   data-arc span      4600 days (12.59 yr)  
   first obs. used      2002-02-07  
   last obs. used      2014-09-12  
   planetary ephem.      DE431  
   SB-pert. ephem.      SB431-BIG16  
   condition code      0  
   fit RMS      .48744  
   data source      ORB  
   producer      Otto Matic  
   solution date      2015-Jan-08 08:29:39  

Additional Information
 Earth MOID = .00189035 au 
 Jupiter MOID = 3.89256 au 
 T_jup = 4.876 
[ show covariance matrix ]

Ephemeris | Orbit Diagram | Orbital Elements | Physical Parameters | Discovery Circumstances | Close-Approach Data ]

Physical Parameter Table
Parameter Symbol Value Units Sigma Reference Notes
absolute magnitude H 18.5 mag n/a MPO320711  

163132 (2002 CU11)          Discovered 2002-Feb-07 by LINEAR at Socorro
Reference: 20070926/Numbers.arcLast Updated: 2007-09-30

[ show close-approach data ]
Ephemeris | Orbit Diagram | Orbital Elements | Physical Parameters | Discovery Circumstances | Close-Approach Data ]
ABOUT SSD CREDITS/AWARDS PRIVACY/COPYRIGHT GLOSSARY LINKS
FirstGov 2016-Feb-14 10:09 UT
(server date/time)  
NASA Home Page
Site Manager:   Ryan S. Park
Webmaster  Alan B. Chamberlin